Regional Weather Roundup
Issued by NWS

Home | Current Version | Previous Version | Graphics & Text | Print | Product List | Glossary On
Versions: 1 2 3 4 5 6 7 8 9 10 11 12 13 14 15 16 17 18 19 20 21 22 23 24 25 26 27 28 29 30 31 32 33 34 35 36 37 38 39 40 41 42 43 44 45 46 47 48 49 50
000
ASUS43 KBIS 040420
RWRND

NORTH DAKOTA REGIONAL WEATHER ROUNDUP
NATIONAL WEATHER SERVICE BISMARCK ND
1000 PM CST TUE MAR 03 2015

NOTE: "FAIR" INDICATES FEW OR NO CLOUDS BELOW 12,000 FEET WITH NO
SIGNIFICANT WEATHER AND/OR OBSTRUCTIONS TO VISIBILITY.


NDZ001>003-009>011-017-040500-
NORTHWEST NORTH DAKOTA

CITY           SKY/WX    TMP DP  RH WIND       PRES   REMARKS
WILLISTON      PTCLDY     4  -4  69 N18G25    30.04R WCI -16
MINOT          PTCLDY    -2 -11  65 SW7       29.98S WCI -15
MINOT AFB      PTCLDY    -3 -10  70 W12       29.98S WCI -21
$$

NDZ018>021-031>035-040>046-040500-
SOUTHWEST NORTH DAKOTA

CITY           SKY/WX    TMP DP  RH WIND       PRES   REMARKS
BISMARCK       CLEAR      3  -5  69 NW6       30.07R WCI  -8
DICKINSON      MOCLDY     2  -6  69 W8        29.95S WCI -12
GARRISON         N/A     -7 -13  75 W8        29.99F WCI -23
HETTINGER ARPT CLEAR      0  -8  69 W6        30.00S WCI -12
$$

NDZ004>008-012>016-024-026-027-054-040500-
NORTHEAST NORTH DAKOTA

CITY           SKY/WX    TMP DP  RH WIND       PRES   REMARKS
GRAND FORKS    PTCLDY    -1  -8  72 W8        30.02R WCI -15
GRND FRKS AFB  CLEAR      0  -9  65 NW12      30.01R WCI -17
DEVILS LAKE    CLEAR     -2 -11  65 W18       29.98R WCI -24
$$

NDZ022-023-025-028>030-036>039-047>053-040500-
SOUTHEAST NORTH DAKOTA

CITY           SKY/WX    TMP DP  RH WIND       PRES   REMARKS
FARGO          CLEAR      2  -7  66 NW10      30.05R WCI -14
JAMESTOWN      CLEAR      0  -8  69 W13       30.02R WCI -18
$$



USA.gov is the U.S. government's official web portal to all federal, state and local government web resources and services.